Time,TemperatureF,DewpointF,PressureIn,WindDirection,WindDirectionDegrees,WindSpeedMPH,WindSpeedGustMPH,Humidity,HourlyPrecipIn,Conditions,Clouds,dailyrainin,SoftwareType,DateUTC
2013-06-13 00:02:00,57.6,53.9,29.83,West,270,0.0,0.0,88,0.00,,,0.00,WSDL version 420,2013-06-13 04:02:00,
2013-06-13 00:06:00,57.3,53.7,29.83,West,270,0.0,0.0,88,0.00,,,0.00,WSDL version 420,2013-06-13 04:06:00,
2013-06-13 00:08:00,57.3,53.8,29.83,West,270,0.0,0.0,89,0.00,,,0.00,WSDL version 420,2013-06-13 04:08:00,
2013-06-13 00:14:00,57.6,54.0,29.83,West,270,0.0,0.0,88,0.00,,,0.00,WSDL version 420,2013-06-13 04:14:00,
2013-06-13 00:15:00,57.6,54.0,29.83,West,270,0.0,0.0,88,0.00,,,0.00,WSDL version 420,2013-06-13 04:15:00,
2013-06-13 00:22:00,57.3,53.5,29.83,West,270,0.0,0.0,87,0.00,,,0.00,WSDL version 420,2013-06-13 04:22:00,
2013-06-13 00:28:00,57.0,53.4,29.83,West,270,0.0,0.0,88,0.00,,,0.00,WSDL version 420,2013-06-13 04:28:00,
2013-06-13 00:34:00,56.8,53.5,29.83,West,270,0.0,0.0,89,0.00,,,0.00,WSDL version 420,2013-06-13 04:34:00,
2013-06-13 00:38:00,56.7,53.4,29.83,West,270,0.0,0.0,88,0.00,,,0.00,WSDL version 420,2013-06-13 04:38:00,
2013-06-13 00:44:00,56.8,53.6,29.83,West,270,0.0,0.0,89,0.00,,,0.00,WSDL version 420,2013-06-13 04:44:00,
2013-06-13 00:50:00,56.8,53.4,29.83,West,270,0.0,0.0,88,0.00,,,0.00,WSDL version 420,2013-06-13 04:50:00,
2013-06-13 00:56:00,56.9,53.4,29.83,West,270,0.0,0.0,89,0.00,,,0.00,WSDL version 420,2013-06-13 04:56:00,
2013-06-13 01:02:00,56.8,53.4,29.83,West,270,0.0,0.0,88,0.00,,,0.00,WSDL version 420,2013-06-13 05:02:00,
2013-06-13 01:08:00,56.5,53.1,29.83,West,270,0.0,0.0,89,0.00,,,0.00,WSDL version 420,2013-06-13 05:08:00,
2013-06-13 01:14:00,56.5,53.3,29.83,West,270,0.0,0.0,89,0.00,,,0.00,WSDL version 420,2013-06-13 05:14:00,
2013-06-13 01:20:00,56.4,53.2,29.83,West,270,0.0,0.0,89,0.00,,,0.00,WSDL version 420,2013-06-13 05:20:00,
2013-06-13 01:26:00,56.5,53.2,29.83,West,270,0.0,0.0,89,0.00,,,0.00,WSDL version 420,2013-06-13 05:26:00,
2013-06-13 01:32:00,56.5,53.3,29.83,West,270,0.0,0.0,89,0.00,,,0.00,WSDL version 420,2013-06-13 05:32:00,
2013-06-13 01:38:00,56.1,52.9,29.80,West,270,0.0,0.0,89,0.00,,,0.00,WSDL version 420,2013-06-13 05:38:00,
2013-06-13 01:44:00,56.2,53.0,29.80,West,270,0.0,0.0,89,0.00,,,0.00,WSDL version 420,2013-06-13 05:44:00,
2013-06-13 01:51:00,56.3,53.1,29.80,West,270,0.0,0.0,89,0.00,,,0.00,WSDL version 420,2013-06-13 05:51:00,
2013-06-13 01:57:00,56.1,52.5,29.80,West,270,0.0,0.0,88,0.00,,,0.00,WSDL version 420,2013-06-13 05:57:00,
2013-06-13 02:03:00,55.9,52.4,29.80,West,270,0.0,0.0,88,0.00,,,0.00,WSDL version 420,2013-06-13 06:03:00,
2013-06-13 02:09:00,55.6,52.0,29.80,West,270,0.0,0.0,88,0.00,,,0.00,WSDL version 420,2013-06-13 06:09:00,
2013-06-13 02:15:00,55.5,52.3,29.80,West,270,0.0,0.0,89,0.00,,,0.00,WSDL version 420,2013-06-13 06:15:00,
2013-06-13 02:21:00,55.8,52.5,29.80,West,270,0.0,0.0,89,0.00,,,0.00,WSDL version 420,2013-06-13 06:21:00,
2013-06-13 02:27:00,55.8,52.5,29.80,West,270,0.0,0.0,89,0.00,,,0.00,WSDL version 420,2013-06-13 06:27:00,
2013-06-13 02:33:00,55.8,52.5,29.80,West,270,0.0,0.0,89,0.00,,,0.00,WSDL version 420,2013-06-13 06:33:00,
2013-06-13 02:39:00,55.6,52.2,29.80,West,270,0.0,0.0,89,0.00,,,0.00,WSDL version 420,2013-06-13 06:39:00,
2013-06-13 02:45:00,55.4,52.2,29.80,West,270,0.0,0.0,89,0.00,,,0.00,WSDL version 420,2013-06-13 06:45:00,
2013-06-13 02:51:00,55.5,52.6,29.80,West,270,0.0,0.0,90,0.00,,,0.00,WSDL version 420,2013-06-13 06:51:00,
2013-06-13 02:57:00,55.3,52.0,29.80,West,270,0.0,0.0,89,0.00,,,0.00,WSDL version 420,2013-06-13 06:57:00,
2013-06-13 03:03:00,55.2,51.8,29.80,West,270,0.0,0.0,88,0.00,,,0.00,WSDL version 420,2013-06-13 07:03:00,
2013-06-13 03:09:00,54.5,51.3,29.80,West,270,0.0,0.0,90,0.00,,,0.00,WSDL version 420,2013-06-13 07:09:00,
2013-06-13 03:15:00,54.9,51.8,29.80,West,270,0.0,0.0,89,0.00,,,0.00,WSDL version 420,2013-06-13 07:15:00,
2013-06-13 03:21:00,54.9,51.8,29.80,West,270,0.0,0.0,90,0.00,,,0.00,WSDL version 420,2013-06-13 07:21:00,
2013-06-13 03:27:00,55.0,52.2,29.80,West,270,0.0,0.0,90,0.00,,,0.00,WSDL version 420,2013-06-13 07:27:00,
2013-06-13 03:33:00,55.0,52.2,29.80,West,270,0.0,0.0,90,0.00,,,0.00,WSDL version 420,2013-06-13 07:33:00,
2013-06-13 03:39:00,54.9,52.0,29.80,West,270,0.0,0.0,90,0.00,,,0.00,WSDL version 420,2013-06-13 07:39:00,
2013-06-13 03:45:00,54.8,51.9,29.80,West,270,0.0,0.0,90,0.00,,,0.00,WSDL version 420,2013-06-13 07:45:00,
2013-06-13 03:51:00,54.3,51.3,29.80,West,270,0.7,2.5,89,0.00,,,0.00,WSDL version 420,2013-06-13 07:51:00,
2013-06-13 03:57:00,54.3,51.4,29.80,West,270,0.0,1.3,90,0.00,,,0.00,WSDL version 420,2013-06-13 07:57:00,
2013-06-13 04:03:00,54.6,52.0,29.80,West,270,0.0,0.0,91,0.00,,,0.00,WSDL version 420,2013-06-13 08:03:00,
2013-06-13 04:09:00,54.9,52.4,29.80,West,270,0.0,0.0,91,0.00,,,0.00,WSDL version 420,2013-06-13 08:09:00,
2013-06-13 04:15:00,55.0,52.5,29.80,West,270,0.0,0.0,91,0.00,,,0.00,WSDL version 420,2013-06-13 08:15:00,
2013-06-13 04:21:00,55.1,52.6,29.80,West,270,0.0,0.0,91,0.00,,,0.00,WSDL version 420,2013-06-13 08:21:00,
2013-06-13 04:27:00,55.4,52.9,29.80,West,270,0.0,0.0,91,0.00,,,0.00,WSDL version 420,2013-06-13 08:27:00,
2013-06-13 04:33:00,55.6,53.1,29.80,West,270,0.0,0.0,91,0.00,,,0.00,WSDL version 420,2013-06-13 08:33:00,
2013-06-13 04:39:00,55.7,53.1,29.80,West,270,0.0,0.0,91,0.00,,,0.00,WSDL version 420,2013-06-13 08:39:00,
2013-06-13 04:46:00,55.8,53.3,29.80,West,270,0.0,0.0,91,0.00,,,0.00,WSDL version 420,2013-06-13 08:46:00,
2013-06-13 04:52:00,55.8,53.6,29.77,West,270,0.0,0.0,92,0.00,,,0.00,WSDL version 420,2013-06-13 08:52:00,
2013-06-13 04:58:00,55.9,53.7,29.77,West,270,0.0,0.0,92,0.00,,,0.00,WSDL version 420,2013-06-13 08:58:00,
2013-06-13 05:04:00,56.0,53.8,29.77,West,270,0.0,0.0,92,0.00,,,0.00,WSDL version 420,2013-06-13 09:04:00,
2013-06-13 05:10:00,55.9,53.7,29.77,West,270,0.0,0.0,92,0.00,,,0.00,WSDL version 420,2013-06-13 09:10:00,
2013-06-13 05:16:00,55.9,53.6,29.77,West,270,0.0,0.0,92,0.00,,,0.00,WSDL version 420,2013-06-13 09:16:00,
2013-06-13 05:22:00,56.3,54.1,29.80,West,270,0.0,0.0,92,0.00,,,0.00,WSDL version 420,2013-06-13 09:22:00,
2013-06-13 05:28:00,56.3,54.1,29.80,West,270,0.0,0.0,92,0.00,,,0.00,WSDL version 420,2013-06-13 09:28:00,
2013-06-13 05:34:00,56.5,54.3,29.80,West,270,0.0,0.0,92,0.00,,,0.00,WSDL version 420,2013-06-13 09:34:00,
2013-06-13 05:40:00,56.5,54.4,29.80,West,270,0.0,0.0,92,0.00,,,0.00,WSDL version 420,2013-06-13 09:40:00,
2013-06-13 05:46:00,56.8,54.8,29.80,West,270,0.0,0.0,93,0.00,,,0.00,WSDL version 420,2013-06-13 09:46:00,
2013-06-13 05:52:00,56.8,54.9,29.80,West,270,0.0,0.0,93,0.00,,,0.00,WSDL version 420,2013-06-13 09:52:00,
2013-06-13 05:58:00,56.8,54.9,29.80,West,270,0.0,0.0,93,0.00,,,0.00,WSDL version 420,2013-06-13 09:58:00,
2013-06-13 06:04:00,56.8,54.9,29.80,West,270,0.0,0.0,93,0.00,,,0.00,WSDL version 420,2013-06-13 10:04:00,
2013-06-13 06:10:00,57.0,55.1,29.80,West,270,0.0,0.0,93,0.00,,,0.00,WSDL version 420,2013-06-13 10:10:00,
2013-06-13 06:16:00,56.9,55.0,29.80,West,270,0.0,0.0,93,0.00,,,0.00,WSDL version 420,2013-06-13 10:16:00,
2013-06-13 06:22:00,57.2,55.3,29.77,West,270,0.0,0.0,93,0.00,,,0.00,WSDL version 420,2013-06-13 10:22:00,
2013-06-13 06:28:00,57.3,55.4,29.77,West,270,0.0,0.0,93,0.00,,,0.00,WSDL version 420,2013-06-13 10:28:00,
2013-06-13 06:34:00,57.3,55.4,29.77,West,270,0.0,0.0,93,0.00,,,0.00,WSDL version 420,2013-06-13 10:34:00,
2013-06-13 06:40:00,57.5,55.6,29.80,West,270,0.0,0.0,93,0.00,,,0.00,WSDL version 420,2013-06-13 10:40:00,
2013-06-13 06:46:00,57.6,55.7,29.80,West,270,0.0,0.0,93,0.00,,,0.00,WSDL version 420,2013-06-13 10:46:00,
2013-06-13 06:52:00,57.7,55.8,29.77,West,270,0.0,0.0,93,0.00,,,0.00,WSDL version 420,2013-06-13 10:52:00,
2013-06-13 06:58:00,57.7,55.8,29.77,West,270,0.0,0.0,93,0.00,,,0.00,WSDL version 420,2013-06-13 10:58:00,
2013-06-13 07:04:00,57.7,55.8,29.77,West,270,0.0,0.0,93,0.00,,,0.00,WSDL version 420,2013-06-13 11:04:00,
2013-06-13 07:10:00,57.9,56.3,29.77,West,270,0.0,1.1,94,0.00,,,0.00,WSDL version 420,2013-06-13 11:10:00,
2013-06-13 07:16:00,58.1,56.5,29.77,West,270,0.0,1.1,94,0.00,,,0.00,WSDL version 420,2013-06-13 11:16:00,
2013-06-13 07:22:00,58.0,56.5,29.74,East,90,1.8,2.7,94,0.00,,,0.00,WSDL version 420,2013-06-13 11:22:00,
2013-06-13 07:28:00,58.1,56.5,29.74,NE,51,0.2,2.7,94,0.00,,,0.00,WSDL version 420,2013-06-13 11:28:00,
2013-06-13 07:34:00,58.0,56.1,29.74,ENE,75,2.1,3.1,93,0.00,,,0.00,WSDL version 420,2013-06-13 11:34:00,
2013-06-13 07:41:00,58.1,56.2,29.74,East,90,3.4,4.3,93,0.00,,,0.00,WSDL version 420,2013-06-13 11:41:00,
2013-06-13 07:47:00,58.1,55.9,29.74,East,84,1.6,4.3,92,0.00,,,0.00,WSDL version 420,2013-06-13 11:47:00,
2013-06-13 07:53:00,58.0,55.8,29.74,SE,124,0.4,4.0,92,0.00,,,0.00,WSDL version 420,2013-06-13 11:53:00,
2013-06-13 07:59:00,57.9,55.7,29.74,East,79,2.1,2.9,92,0.00,,,0.00,WSDL version 420,2013-06-13 11:59:00,
2013-06-13 08:05:00,57.9,55.7,29.74,ESE,113,2.2,4.3,92,0.00,,,0.00,WSDL version 420,2013-06-13 12:05:00,
2013-06-13 08:11:00,57.9,55.7,29.74,SE,124,1.5,4.3,92,0.00,,,0.00,WSDL version 420,2013-06-13 12:11:00,
2013-06-13 08:17:00,58.1,56.0,29.74,ESE,105,3.4,3.6,92,0.00,,,0.00,WSDL version 420,2013-06-13 12:17:00,
2013-06-13 08:23:00,58.1,55.9,29.74,ESE,113,0.0,3.6,92,0.00,,,0.00,WSDL version 420,2013-06-13 12:23:00,
2013-06-13 08:29:00,58.1,56.2,29.74,SE,135,2.5,2.5,93,0.00,,,0.00,WSDL version 420,2013-06-13 12:29:00,
2013-06-13 08:35:00,58.1,56.2,29.74,NNE,23,0.0,2.5,93,0.04,,,0.04,WSDL version 420,2013-06-13 12:35:00,
2013-06-13 08:41:00,57.9,56.3,29.74,SE,135,2.9,2.9,94,0.04,,,0.04,WSDL version 420,2013-06-13 12:41:00,
2013-06-13 08:47:00,57.9,56.1,29.74,South,180,0.0,2.9,93,0.04,,,0.04,WSDL version 420,2013-06-13 12:47:00,
2013-06-13 08:53:00,58.1,56.5,29.74,ESE,113,1.5,2.0,94,0.04,,,0.04,WSDL version 420,2013-06-13 12:53:00,
2013-06-13 08:59:00,58.0,56.5,29.74,WNW,293,0.0,2.0,94,0.04,,,0.04,WSDL version 420,2013-06-13 12:59:00,
2013-06-13 09:05:00,58.0,56.7,29.74,SSE,158,0.0,0.0,94,0.04,,,0.04,WSDL version 420,2013-06-13 13:05:00,
2013-06-13 09:11:00,57.9,56.3,29.74,East,96,2.3,3.4,94,0.08,,,0.08,WSDL version 420,2013-06-13 13:11:00,
2013-06-13 09:17:00,58.2,56.7,29.74,SSW,203,0.0,3.4,96,0.08,,,0.08,WSDL version 420,2013-06-13 13:17:00,
2013-06-13 09:23:00,58.1,56.5,29.74,SSW,203,0.0,0.0,94,0.08,,,0.08,WSDL version 420,2013-06-13 13:23:00,
2013-06-13 09:29:00,58.1,56.5,29.74,East,90,3.6,4.7,94,0.08,,,0.08,WSDL version 420,2013-06-13 13:29:00,
2013-06-13 09:35:00,58.2,56.6,29.74,East,83,4.2,4.9,94,0.04,,,0.08,WSDL version 420,2013-06-13 13:35:00,
2013-06-13 09:41:00,58.3,57.0,29.71,East,90,1.1,4.9,96,0.04,,,0.08,WSDL version 420,2013-06-13 13:41:00,
2013-06-13 09:47:00,58.2,57.0,29.71,East,101,1.7,4.5,96,0.04,,,0.08,WSDL version 420,2013-06-13 13:47:00,
2013-06-13 09:53:00,58.5,57.2,29.74,ESE,113,2.6,2.9,96,0.04,,,0.08,WSDL version 420,2013-06-13 13:53:00,
2013-06-13 09:59:00,58.3,57.1,29.74,ENE,62,1.7,2.9,96,0.08,,,0.12,WSDL version 420,2013-06-13 13:59:00,
2013-06-13 10:05:00,58.2,56.8,29.74,ESE,113,2.2,2.7,94,0.08,,,0.12,WSDL version 420,2013-06-13 14:05:00,
2013-06-13 10:11:00,58.1,56.8,29.71,East,90,4.0,4.0,96,0.04,,,0.12,WSDL version 420,2013-06-13 14:11:00,
2013-06-13 10:17:00,57.9,56.4,29.71,SE,146,1.6,4.3,94,0.04,,,0.12,WSDL version 420,2013-06-13 14:17:00,
2013-06-13 10:23:00,57.7,56.2,29.71,ESE,105,2.4,4.3,94,0.04,,,0.12,WSDL version 420,2013-06-13 14:23:00,
2013-06-13 10:29:00,57.6,56.1,29.71,WNW,293,1.1,5.4,96,0.08,,,0.16,WSDL version 420,2013-06-13 14:29:00,
2013-06-13 10:36:00,57.3,55.7,29.74,ESE,120,1.5,3.1,94,0.08,,,0.16,WSDL version 420,2013-06-13 14:36:00,
2013-06-13 10:42:00,57.2,55.8,29.74,South,180,2.8,2.9,96,0.12,,,0.20,WSDL version 420,2013-06-13 14:42:00,
2013-06-13 10:48:00,57.4,56.3,29.74,NE,53,3.7,6.3,97,0.12,,,0.20,WSDL version 420,2013-06-13 14:48:00,
2013-06-13 10:54:00,57.3,56.3,29.71,East,90,4.5,6.5,97,0.17,,,0.25,WSDL version 420,2013-06-13 14:54:00,
2013-06-13 11:00:00,57.2,56.3,29.71,ENE,75,6.6,8.5,97,0.13,,,0.25,WSDL version 420,2013-06-13 15:00:00,
2013-06-13 11:06:00,57.0,56.4,29.71,East,81,6.0,8.5,98,0.13,,,0.25,WSDL version 420,2013-06-13 15:06:00,
2013-06-13 11:12:00,57.1,56.5,29.71,SE,135,2.1,6.5,98,0.13,,,0.25,WSDL version 420,2013-06-13 15:12:00,
2013-06-13 11:18:00,57.2,56.6,29.71,ESE,113,7.6,7.6,98,0.13,,,0.25,WSDL version 420,2013-06-13 15:18:00,
2013-06-13 11:24:00,57.1,56.4,29.68,East,98,2.8,7.6,97,0.17,,,0.29,WSDL version 420,2013-06-13 15:24:00,
2013-06-13 11:30:00,57.1,56.4,29.68,ENE,75,8.3,9.6,98,0.13,,,0.29,WSDL version 420,2013-06-13 15:30:00,
2013-06-13 11:36:00,57.2,56.7,29.68,ESE,105,5.9,9.6,99,0.13,,,0.29,WSDL version 420,2013-06-13 15:36:00,
2013-06-13 11:42:00,57.1,56.3,29.68,East,95,4.6,9.6,97,0.09,,,0.29,WSDL version 420,2013-06-13 15:42:00,
2013-06-13 11:48:00,57.1,56.5,29.68,East,90,3.8,10.7,98,0.09,,,0.29,WSDL version 420,2013-06-13 15:48:00,
2013-06-13 11:54:00,57.0,56.2,29.65,ESE,113,3.4,10.7,98,0.04,,,0.29,WSDL version 420,2013-06-13 15:54:00,
2013-06-13 12:00:00,57.1,56.2,29.65,SSW,203,4.7,5.4,97,0.04,,,0.29,WSDL version 420,2013-06-13 16:00:00,
2013-06-13 12:06:00,57.3,56.4,29.68,ENE,68,4.6,5.6,98,0.04,,,0.29,WSDL version 420,2013-06-13 16:06:00,
2013-06-13 12:12:00,57.3,56.7,29.68,East,79,3.1,5.6,98,0.08,,,0.33,WSDL version 420,2013-06-13 16:12:00,
2013-06-13 12:18:00,57.2,56.6,29.68,ESE,113,2.5,7.8,98,0.08,,,0.33,WSDL version 420,2013-06-13 16:18:00,
2013-06-13 12:24:00,57.4,56.8,29.68,ESE,120,3.4,7.8,98,0.04,,,0.33,WSDL version 420,2013-06-13 16:24:00,
2013-06-13 12:30:00,57.4,56.8,29.68,SE,135,5.2,9.2,98,0.04,,,0.33,WSDL version 420,2013-06-13 16:30:00,
2013-06-13 12:36:00,57.4,56.7,29.68,ESE,105,6.0,9.2,97,0.04,,,0.33,WSDL version 420,2013-06-13 16:36:00,
2013-06-13 12:42:00,57.4,56.6,29.68,NE,45,3.1,8.7,97,0.04,,,0.33,WSDL version 420,2013-06-13 16:42:00,
2013-06-13 12:48:00,57.4,56.5,29.68,East,83,2.5,8.7,97,0.04,,,0.33,WSDL version 420,2013-06-13 16:48:00,
2013-06-13 12:54:00,57.4,56.5,29.65,ESE,118,6.4,9.8,97,0.04,,,0.33,WSDL version 420,2013-06-13 16:54:00,
2013-06-13 13:00:00,57.6,56.6,29.65,ESE,105,6.1,9.8,97,0.04,,,0.33,WSDL version 420,2013-06-13 17:00:00,
2013-06-13 13:06:00,57.5,56.8,29.62,SSE,152,2.9,7.2,98,0.04,,,0.33,WSDL version 420,2013-06-13 17:06:00,
2013-06-13 13:13:00,57.7,57.1,29.62,NE,53,3.1,7.6,98,0.00,,,0.33,WSDL version 420,2013-06-13 17:13:00,
2013-06-13 13:19:00,57.9,57.2,29.62,ENE,75,7.5,7.8,98,0.00,,,0.33,WSDL version 420,2013-06-13 17:19:00,
2013-06-13 13:25:00,58.0,57.1,29.62,SE,129,4.9,8.7,97,0.00,,,0.33,WSDL version 420,2013-06-13 17:25:00,
2013-06-13 13:31:00,58.2,57.4,29.62,ENE,68,6.9,8.7,97,0.00,,,0.33,WSDL version 420,2013-06-13 17:31:00,
2013-06-13 13:37:00,58.1,57.0,29.62,NE,45,3.4,7.8,96,0.00,,,0.33,WSDL version 420,2013-06-13 17:37:00,
2013-06-13 13:43:00,57.9,56.7,29.62,East,90,7.2,13.0,96,0.00,,,0.33,WSDL version 420,2013-06-13 17:43:00,
2013-06-13 13:49:00,58.0,56.7,29.62,East,90,5.4,13.2,96,0.00,,,0.33,WSDL version 420,2013-06-13 17:49:00,
2013-06-13 13:55:00,58.1,56.8,29.62,ESE,105,5.8,13.2,96,0.00,,,0.33,WSDL version 420,2013-06-13 17:55:00,
2013-06-13 14:01:00,58.1,56.8,29.62,SSW,195,3.6,7.2,96,0.00,,,0.33,WSDL version 420,2013-06-13 18:01:00,
2013-06-13 14:07:00,58.1,56.8,29.62,NNE,23,2.0,12.3,96,0.00,,,0.33,WSDL version 420,2013-06-13 18:07:00,
2013-06-13 14:13:00,58.1,56.8,29.62,ESE,105,4.7,12.3,96,0.00,,,0.33,WSDL version 420,2013-06-13 18:13:00,
2013-06-13 14:19:00,57.9,56.7,29.62,SE,124,4.4,8.5,96,0.00,,,0.33,WSDL version 420,2013-06-13 18:19:00,
2013-06-13 14:25:00,58.0,56.8,29.62,East,90,4.5,6.7,96,0.00,,,0.33,WSDL version 420,2013-06-13 18:25:00,
2013-06-13 14:31:00,57.9,56.7,29.62,NE,56,4.8,8.5,96,0.00,,,0.33,WSDL version 420,2013-06-13 18:31:00,
2013-06-13 14:37:00,58.0,56.8,29.62,SSW,195,1.3,8.5,96,0.00,,,0.33,WSDL version 420,2013-06-13 18:37:00,
2013-06-13 14:43:00,57.9,56.7,29.62,West,263,1.9,5.8,96,0.00,,,0.33,WSDL version 420,2013-06-13 18:43:00,
2013-06-13 14:49:00,57.9,56.7,29.62,SE,146,5.8,8.1,96,0.00,,,0.33,WSDL version 420,2013-06-13 18:49:00,
2013-06-13 14:55:00,58.1,56.7,29.62,ENE,75,4.8,10.7,94,0.00,,,0.33,WSDL version 420,2013-06-13 18:55:00,
2013-06-13 15:01:00,58.1,56.8,29.62,ESE,105,6.4,10.7,96,0.00,,,0.33,WSDL version 420,2013-06-13 19:01:00,
2013-06-13 15:08:00,58.1,56.7,29.62,NE,45,5.6,7.8,94,0.00,,,0.33,WSDL version 420,2013-06-13 19:08:00,
2013-06-13 15:14:00,58.1,56.8,29.62,East,79,6.4,10.1,96,0.00,,,0.33,WSDL version 420,2013-06-13 19:14:00,
2013-06-13 15:20:00,58.1,56.6,29.62,ESE,105,8.7,10.1,96,0.00,,,0.33,WSDL version 420,2013-06-13 19:20:00,
2013-06-13 15:26:00,58.1,56.8,29.59,SE,141,3.9,9.8,96,0.00,,,0.33,WSDL version 420,2013-06-13 19:26:00,
2013-06-13 15:32:00,57.9,56.7,29.59,SSE,158,5.8,10.5,96,0.00,,,0.33,WSDL version 420,2013-06-13 19:32:00,
2013-06-13 15:38:00,57.9,56.7,29.59,ENE,75,3.6,10.5,96,0.00,,,0.33,WSDL version 420,2013-06-13 19:38:00,
2013-06-13 15:44:00,57.9,56.6,29.59,SE,146,2.0,10.5,96,0.00,,,0.33,WSDL version 420,2013-06-13 19:44:00,
2013-06-13 15:50:00,57.7,56.5,29.59,East,90,4.8,6.0,96,0.00,,,0.33,WSDL version 420,2013-06-13 19:50:00,
2013-06-13 15:56:00,57.6,56.6,29.59,SSE,150,6.2,7.4,96,0.00,,,0.33,WSDL version 420,2013-06-13 19:56:00,
2013-06-13 16:02:00,57.7,56.8,29.59,ESE,105,4.5,10.3,97,0.00,,,0.33,WSDL version 420,2013-06-13 20:02:00,
2013-06-13 16:08:00,57.6,56.8,29.59,ESE,105,4.4,10.3,97,0.00,,,0.33,WSDL version 420,2013-06-13 20:08:00,
2013-06-13 16:14:00,57.5,56.5,29.59,East,99,4.3,7.4,97,0.00,,,0.33,WSDL version 420,2013-06-13 20:14:00,
2013-06-13 16:20:00,57.4,56.7,29.59,NE,38,5.3,7.4,97,0.00,,,0.33,WSDL version 420,2013-06-13 20:20:00,
2013-06-13 16:26:00,57.3,56.3,29.56,NNE,23,5.8,7.4,97,0.00,,,0.33,WSDL version 420,2013-06-13 20:26:00,
2013-06-13 16:32:00,57.3,56.5,29.56,ESE,120,2.0,5.8,98,0.00,,,0.33,WSDL version 420,2013-06-13 20:32:00,
2013-06-13 16:38:00,57.3,56.8,29.56,SE,135,9.6,9.6,98,0.04,,,0.37,WSDL version 420,2013-06-13 20:38:00,
2013-06-13 16:44:00,57.2,56.6,29.56,East,101,7.4,9.6,98,0.04,,,0.37,WSDL version 420,2013-06-13 20:44:00,
2013-06-13 16:50:00,57.2,56.8,29.56,NE,56,2.7,9.4,99,0.04,,,0.37,WSDL version 420,2013-06-13 20:50:00,
2013-06-13 16:56:00,57.0,56.7,29.56,SE,135,7.6,7.6,99,0.04,,,0.37,WSDL version 420,2013-06-13 20:56:00,
2013-06-13 17:04:00,56.9,56.6,29.56,East,90,4.3,7.6,99,0.08,,,0.41,WSDL version 420,2013-06-13 21:04:00,
2013-06-13 17:10:00,57.0,56.9,29.56,SSE,158,3.1,8.7,100,0.08,,,0.41,WSDL version 420,2013-06-13 21:10:00,
2013-06-13 17:17:00,57.0,57.0,29.56,SE,135,3.0,4.5,100,0.08,,,0.41,WSDL version 420,2013-06-13 21:17:00,
2013-06-13 17:23:00,57.0,57.0,29.56,ESE,113,3.9,6.3,100,0.08,,,0.41,WSDL version 420,2013-06-13 21:23:00,
2013-06-13 17:29:00,56.8,56.8,29.56,ENE,60,3.8,6.3,100,0.12,,,0.45,WSDL version 420,2013-06-13 21:29:00,
2013-06-13 17:35:00,56.8,56.8,29.56,East,101,4.4,10.3,100,0.12,,,0.45,WSDL version 420,2013-06-13 21:35:00,
2013-06-13 17:41:00,56.8,56.8,29.56,ESE,120,4.0,6.0,100,0.08,,,0.45,WSDL version 420,2013-06-13 21:41:00,
2013-06-13 17:47:00,56.8,56.8,29.56,SE,135,1.3,5.4,100,0.08,,,0.45,WSDL version 420,2013-06-13 21:47:00,
2013-06-13 17:53:00,56.8,56.8,29.53,East,101,3.6,5.8,100,0.13,,,0.50,WSDL version 420,2013-06-13 21:53:00,
2013-06-13 17:59:00,56.7,56.7,29.53,SSW,203,4.0,10.3,100,0.13,,,0.50,WSDL version 420,2013-06-13 21:59:00,
2013-06-13 18:05:00,56.7,56.7,29.53,ENE,75,5.3,7.4,100,0.09,,,0.50,WSDL version 420,2013-06-13 22:05:00,
2013-06-13 18:11:00,56.7,56.7,29.53,ESE,113,3.6,12.8,100,0.09,,,0.50,WSDL version 420,2013-06-13 22:11:00,
2013-06-13 18:17:00,56.7,56.7,29.53,SE,128,4.6,12.8,100,0.12,,,0.53,WSDL version 420,2013-06-13 22:17:00,
2013-06-13 18:23:00,56.6,56.6,29.53,ENE,77,4.0,5.4,100,0.12,,,0.53,WSDL version 420,2013-06-13 22:23:00,
2013-06-13 18:29:00,56.6,56.6,29.53,NE,45,2.7,4.9,100,0.13,,,0.58,WSDL version 420,2013-06-13 22:29:00,
2013-06-13 18:35:00,56.5,56.5,29.53,NW,315,5.8,5.8,100,0.13,,,0.58,WSDL version 420,2013-06-13 22:35:00,
2013-06-13 18:41:00,56.4,56.4,29.53,NE,45,2.5,5.8,100,0.13,,,0.58,WSDL version 420,2013-06-13 22:41:00,
2013-06-13 18:47:00,56.3,56.3,29.53,NE,34,3.2,5.6,100,0.13,,,0.58,WSDL version 420,2013-06-13 22:47:00,
2013-06-13 18:53:00,56.3,56.3,29.53,East,90,1.1,5.6,100,0.12,,,0.62,WSDL version 420,2013-06-13 22:53:00,
2013-06-13 18:59:00,56.2,56.2,29.53,ESE,113,7.6,7.6,100,0.12,,,0.62,WSDL version 420,2013-06-13 22:59:00,
2013-06-13 19:05:00,56.1,56.1,29.53,ESE,113,3.4,7.6,100,0.16,,,0.66,WSDL version 420,2013-06-13 23:05:00,
2013-06-13 19:11:00,55.9,55.9,29.53,ENE,60,3.1,4.0,100,0.16,,,0.66,WSDL version 420,2013-06-13 23:11:00,
2013-06-13 19:17:00,55.8,55.8,29.53,ENE,75,6.0,7.2,100,0.17,,,0.70,WSDL version 420,2013-06-13 23:17:00,
2013-06-13 19:23:00,55.7,55.7,29.56,East,90,4.3,7.2,100,0.17,,,0.70,WSDL version 420,2013-06-13 23:23:00,
2013-06-13 19:29:00,55.6,55.6,29.56,East,90,6.5,6.5,100,0.16,,,0.74,WSDL version 420,2013-06-13 23:29:00,
2013-06-13 19:35:00,55.6,55.6,29.56,NW,315,2.9,6.5,100,0.16,,,0.74,WSDL version 420,2013-06-13 23:35:00,
2013-06-13 19:41:00,55.5,55.5,29.56,ESE,105,5.3,10.7,100,0.21,,,0.79,WSDL version 420,2013-06-13 23:41:00,
2013-06-13 19:47:00,55.4,55.4,29.56,ESE,113,6.5,8.7,100,0.21,,,0.79,WSDL version 420,2013-06-13 23:47:00,
2013-06-13 19:54:00,55.4,55.4,29.56,East,90,4.3,8.5,100,0.17,,,0.79,WSDL version 420,2013-06-13 23:54:00,
2013-06-13 20:00:00,55.2,55.2,29.56,ESE,105,4.5,6.5,100,0.25,,,0.87,WSDL version 420,2013-06-14 00:00:00,
2013-06-13 20:06:00,55.1,55.1,29.56,ENE,75,9.7,14.8,100,0.21,,,0.87,WSDL version 420,2013-06-14 00:06:00,
2013-06-13 20:12:00,55.0,55.0,29.56,North,360,3.6,14.8,100,0.25,,,0.91,WSDL version 420,2013-06-14 00:12:00,
2013-06-13 20:18:00,55.0,55.0,29.56,SE,135,2.0,14.8,100,0.21,,,0.91,WSDL version 420,2013-06-14 00:18:00,
2013-06-13 20:24:00,54.9,54.9,29.56,WNW,293,4.0,10.5,100,0.25,,,0.95,WSDL version 420,2013-06-14 00:24:00,
2013-06-13 20:30:00,54.9,54.9,29.56,ENE,75,2.4,5.8,100,0.25,,,0.99,WSDL version 420,2013-06-14 00:30:00,
2013-06-13 20:36:00,54.7,54.7,29.56,SSE,165,4.9,5.8,100,0.33,,,1.07,WSDL version 420,2013-06-14 00:36:00,
2013-06-13 20:42:00,54.7,54.7,29.56,NE,45,5.6,5.6,100,0.28,,,1.07,WSDL version 420,2013-06-14 00:42:00,
2013-06-13 20:48:00,54.7,54.7,29.56,NE,45,4.2,6.3,100,0.33,,,1.12,WSDL version 420,2013-06-14 00:48:00,
2013-06-13 20:54:00,54.7,54.7,29.56,South,191,3.9,6.3,100,0.41,,,1.20,WSDL version 420,2013-06-14 00:54:00,
2013-06-13 21:00:00,54.6,54.6,29.56,NNW,330,3.8,8.7,100,0.37,,,1.24,WSDL version 420,2013-06-14 01:00:00,
2013-06-13 21:06:00,54.5,54.5,29.56,WSW,248,3.6,8.7,100,0.37,,,1.24,WSDL version 420,2013-06-14 01:06:00,
2013-06-13 21:12:00,54.3,54.3,29.56,South,180,3.1,3.6,100,0.37,,,1.28,WSDL version 420,2013-06-14 01:12:00,
2013-06-13 21:18:00,54.3,54.3,29.56,North,349,2.2,3.1,100,0.37,,,1.28,WSDL version 420,2013-06-14 01:18:00,
2013-06-13 21:24:00,54.2,54.2,29.56,SE,135,4.3,4.9,100,0.33,,,1.28,WSDL version 420,2013-06-14 01:24:00,
2013-06-13 21:30:00,54.1,54.1,29.56,ENE,68,6.7,8.5,100,0.29,,,1.28,WSDL version 420,2013-06-14 01:30:00,
2013-06-13 21:36:00,53.8,53.8,29.56,North,360,4.3,8.5,100,0.21,,,1.28,WSDL version 420,2013-06-14 01:36:00,
2013-06-13 21:42:00,53.8,53.8,29.56,SSE,158,6.3,6.3,100,0.21,,,1.28,WSDL version 420,2013-06-14 01:42:00,
2013-06-13 21:48:00,53.7,53.7,29.56,SSW,203,3.6,6.3,100,0.16,,,1.28,WSDL version 420,2013-06-14 01:48:00,
2013-06-13 21:54:00,53.5,53.5,29.56,NNE,15,3.0,4.0,100,0.08,,,1.28,WSDL version 420,2013-06-14 01:54:00,
2013-06-13 22:00:00,53.4,53.4,29.56,East,90,4.0,4.0,100,0.04,,,1.28,WSDL version 420,2013-06-14 02:00:00,
2013-06-13 22:06:00,53.5,53.5,29.59,NNE,23,2.7,4.9,100,-99.99,,,-99.99,WSDL version 420,2013-06-14 02:06:00,
2013-06-13 22:12:00,53.4,53.4,29.59,West,270,0.9,4.9,100,0.00,,,1.28,WSDL version 420,2013-06-14 02:12:00,
2013-06-13 22:18:00,53.2,53.2,29.59,East,90,4.9,4.9,100,0.00,,,1.28,WSDL version 420,2013-06-14 02:18:00,
2013-06-13 22:24:00,53.1,53.1,29.56,NNE,23,2.9,4.9,100,0.00,,,1.28,WSDL version 420,2013-06-14 02:24:00,
2013-06-13 22:30:00,53.1,53.1,29.56,WNW,293,2.9,4.3,100,0.05,,,1.33,WSDL version 420,2013-06-14 02:30:00,
2013-06-13 22:36:00,53.0,53.0,29.56,North,349,2.0,2.9,100,0.05,,,1.33,WSDL version 420,2013-06-14 02:36:00,
2013-06-13 22:43:00,53.1,53.1,29.56,West,270,1.6,6.9,100,0.05,,,1.33,WSDL version 420,2013-06-14 02:43:00,
2013-06-13 22:49:00,52.9,52.9,29.56,NE,45,5.6,5.6,100,0.05,,,1.33,WSDL version 420,2013-06-14 02:49:00,
2013-06-13 22:55:00,52.9,52.9,29.56,North,11,3.6,5.6,100,0.05,,,1.33,WSDL version 420,2013-06-14 02:55:00,
2013-06-13 23:01:00,52.7,52.7,29.56,SW,225,2.9,4.5,100,0.05,,,1.33,WSDL version 420,2013-06-14 03:01:00,
2013-06-13 23:07:00,52.6,52.6,29.56,North,360,2.9,6.3,100,0.09,,,1.37,WSDL version 420,2013-06-14 03:07:00,
2013-06-13 23:13:00,52.5,52.5,29.56,West,270,2.6,6.3,100,0.09,,,1.37,WSDL version 420,2013-06-14 03:13:00,
2013-06-13 23:19:00,52.4,52.4,29.56,North,360,3.4,6.3,100,0.09,,,1.37,WSDL version 420,2013-06-14 03:19:00,
2013-06-13 23:25:00,52.3,52.3,29.56,NNE,23,5.4,6.0,100,0.09,,,1.37,WSDL version 420,2013-06-14 03:25:00,
2013-06-13 23:31:00,52.3,52.3,29.56,East,90,2.2,5.4,100,0.04,,,1.37,WSDL version 420,2013-06-14 03:31:00,
2013-06-13 23:37:00,52.3,52.3,29.56,WNW,293,2.0,5.4,100,0.08,,,1.41,WSDL version 420,2013-06-14 03:37:00,
2013-06-13 23:43:00,52.3,52.3,29.56,ENE,68,2.9,2.9,100,0.08,,,1.41,WSDL version 420,2013-06-14 03:43:00,
2013-06-13 23:49:00,52.3,52.3,29.56,NE,45,2.7,5.6,100,0.08,,,1.41,WSDL version 420,2013-06-14 03:49:00,
2013-06-13 23:55:00,52.3,52.3,29.59,WNW,293,6.3,6.3,100,-99.99,,,-99.99,WSDL version 420,2013-06-14 03:55:00,